M I D A S
Marine Information and Data Acquisition System
Tripno 1010 of the Zeeleeuw from 2005-01-17 08:11:22 to 2005-01-17 12:48:56
Back to CruiseResearch ActivitiesStationsMapUnderway DataData graphs

EquipmentUnitsComments
TimeDGPSUTC
LatitudeDGPSDM.mWGS84
LongitudeDGPSDM.mWGS84
SpeedMeteo Stationm/sRelative wind speed
DirectionMeteo StationdegRelative wind direction
TemperatureMeteo Stationdeg CelciusAir temperature
PressureMeteo StationPaAtmospheric pressure
HumidityMeteo Station%Relative humidity
Missing or incorrect values are displayed as -999
Metereological data collected by the RV Zeeleeuw from 2005-01-17 08:11:22 to 2005-01-17 12:48:56
Time Latitude Longitude Speed Direction Temperature Pressure Humidity
2005-01-17 08:12 51°13.596 2°56.102 6.7 104 6.4 101860 100
2005-01-17 08:13 51°13.595 2°56.099 7.6 93 6.4 101860 100
2005-01-17 08:14 51°13.614 2°56.035 3.4 114 6.5 101860 99
2005-01-17 08:15 51°13.642 2°55.934 3.8 116 6.5 101850 99
2005-01-17 08:16 51°13.678 2°55.812 5.3 141 6.5 101860 99
2005-01-17 08:17 51°13.696 2°55.744 3.5 137 6.5 101850 99
2005-01-17 08:18 51°13.711 2°55.756 4.1 177 6.4 101850 99
2005-01-17 08:19 51°13.72 2°55.745 1.8 255 6.5 101860 99
2005-01-17 08:20 51°13.792 2°55.673 1.7 273 6.5 101820 99
2005-01-17 08:21 51°13.913 2°55.572 3.4 39 6.5 101810 99
2005-01-17 08:22 51°14.054 2°55.466 3.6 324 6.5 101820 99
2005-01-17 08:23 51°14.208 2°55.338 4.2 279 6.5 101810 99
2005-01-17 08:24 51°14.337 2°55.115 7.9 41 6.5 101800 99
2005-01-17 08:25 51°14.477 2°54.891 9.1 285 6.6 101790 99
2005-01-17 08:26 51°14.643 2°54.69 7.1 282 6.6 101780 99
2005-01-17 08:27 51°14.811 2°54.507 7.8 270 6.6 101790 99
2005-01-17 08:28 51°14.962 2°54.345 8.7 269 6.6 101810 99
2005-01-17 08:29 51°15.059 2°54.246 5.4 257 6.6 101810 99
2005-01-17 08:30 51°15.141 2°54.173 7.9 247 6.6 101800 99
2005-01-17 08:31 51°15.212 2°54.1 5.9 257 6.7 101830 99
2005-01-17 08:32 51°15.275 2°54.036 7 251 6.7 101820 100
2005-01-17 08:33 51°15.382 2°53.925 5.8 259 6.7 101830 100
2005-01-17 08:34 51°15.562 2°53.726 9 266 6.7 101830 100
2005-01-17 08:35 51°15.763 2°53.547 6.3 257 6.7 101820 100
2005-01-17 08:36 51°15.976 2°53.372 8.6 267 6.7 101820 100
2005-01-17 08:37 51°16.187 2°53.203 7.7 267 6.7 101750 100
2005-01-17 08:38 51°16.398 2°53.037 6.9 263 6.8 101750 100
2005-01-17 08:39 51°16.608 2°52.873 8.2 262 6.8 101750 100
2005-01-17 08:40 51°16.823 2°52.722 8 265 6.8 101790 100
2005-01-17 08:41 51°17.035 2°52.576 7.4 267 6.8 101790 100
2005-01-17 08:42 51°17.256 2°52.424 6.3 260 6.8 101790 100
2005-01-17 08:43 51°17.475 2°52.276 6.3 273 6.8 101790 100
2005-01-17 08:44 51°17.661 2°52.051 11.2 280 6.8 101790 100
2005-01-17 08:45 51°17.815 2°51.769 11.2 279 6.9 101780 100
2005-01-17 08:46 51°17.969 2°51.483 13.7 294 6.9 101780 100
2005-01-17 08:47 51°18.089 2°51.159 12.1 295 6.9 101760 100
2005-01-17 08:48 51°18.201 2°50.842 11.8 302 6.9 101760 100
2005-01-17 08:49 51°18.32 2°50.509 11.8 300 7 101760 100
2005-01-17 08:50 51°18.437 2°50.186 13.7 295 7 101710 100
2005-01-17 08:51 51°18.551 2°49.862 13.2 296 7 101700 100
2005-01-17 08:52 51°18.663 2°49.537 12.7 301 7 101700 100
2005-01-17 08:53 51°18.776 2°49.211 13.3 302 7 101700 100
2005-01-17 08:54 51°18.889 2°48.887 13.3 298 7.1 101700 100
2005-01-17 08:55 51°19.005 2°48.552 12.3 298 7.1 101690 100
2005-01-17 08:56 51°19.119 2°48.225 11.9 301 7.1 101700 100
2005-01-17 08:57 51°19.234 2°47.9 12.8 300 7.1 101690 100
2005-01-17 08:58 51°19.348 2°47.579 13.2 296 7.1 101690 100
2005-01-17 08:59 51°19.46 2°47.261 13.4 298 7.1 101670 100
2005-01-17 09:00 51°19.572 2°46.944 13.9 292 7.1 101680 100
2005-01-17 09:01 51°19.685 2°46.608 14.6 293 7.1 101680 100
2005-01-17 09:02 51°19.787 2°46.275 14 298 7.2 101670 100
2005-01-17 09:03 51°19.9 2°46.008 14.4 292 7.2 101710 100
2005-01-17 09:04 51°19.909 2°45.852 14.8 334 7.2 101710 100
2005-01-17 09:05 51°19.889 2°45.791 13.5 344 7.2 101720 100
2005-01-17 09:06 51°19.899 2°45.782 11.6 343 7.3 101740 99
2005-01-17 09:07 51°19.915 2°45.779 11.1 318 7.3 101740 99
2005-01-17 09:08 51°19.93 2°45.763 12.3 318 7.3 101740 99
2005-01-17 09:09 51°19.947 2°45.745 12 306 7.3 101740 99
2005-01-17 09:10 51°19.966 2°45.719 12.9 315 7.3 101730 99
2005-01-17 09:11 51°19.939 2°45.668 13.2 25 7.3 101730 99
2005-01-17 09:12 51°19.912 2°45.743 11.5 120 7.3 101710 99
2005-01-17 09:13 51°19.93 2°45.803 11.6 104 7.3 101730 99
2005-01-17 09:14 51°19.944 2°45.816 11 95 7.3 101750 99
2005-01-17 09:15 51°19.957 2°45.834 4.4 88 7.3 101750 99
2005-01-17 09:16 51°19.968 2°45.852 11.4 80 7.3 101740 99
2005-01-17 09:17 51°19.98 2°45.869 11 81 7.3 101740 99
2005-01-17 09:18 51°19.993 2°45.884 9.2 77 7.3 101740 99
2005-01-17 09:19 51°20.005 2°45.902 11.3 80 7.3 101740 99
2005-01-17 09:20 51°19.995 2°45.932 12.4 35 7.3 101730 99
2005-01-17 09:21 51°19.985 2°45.944 11 37 7.3 101730 99
2005-01-17 09:22 51°19.995 2°45.957 10.6 70 7.3 101740 99
2005-01-17 09:23 51°20.011 2°45.969 9.2 106 7.3 101730 99
2005-01-17 09:24 51°20.027 2°45.985 11.9 102 7.3 101730 99
2005-01-17 09:25 51°20.041 2°46.002 11 102 7.3 101730 99
2005-01-17 09:26 51°20.018 2°46.061 15.2 50 7.3 101700 99
2005-01-17 09:27 51°19.926 2°46.029 16.2 350 7.3 101720 99
2005-01-17 09:28 51°19.786 2°45.841 17.1 353 7.3 101680 99
2005-01-17 09:29 51°19.623 2°45.612 19.5 354 7.4 101670 99
2005-01-17 09:30 51°19.456 2°45.389 18.3 352 7.4 101670 99
2005-01-17 09:31 51°19.29 2°45.164 17.7 1 7.4 101670 99
2005-01-17 09:32 51°19.125 2°44.936 17.3 348 7.4 101660 98
2005-01-17 09:33 51°18.961 2°44.704 19.1 353 7.4 101660 98
2005-01-17 09:34 51°18.799 2°44.469 17.9 352 7.4 101660 98
2005-01-17 09:35 51°18.684 2°44.302 16.5 352 7.4 101700 98
2005-01-17 09:36 51°18.632 2°44.193 14.4 346 7.4 101710 98
2005-01-17 09:37 51°18.612 2°44.148 12.2 350 7.4 101710 98
2005-01-17 09:38 51°18.63 2°44.148 11.3 338 7.3 101720 98
2005-01-17 09:39 51°18.647 2°44.135 14 327 7.4 101720 98
2005-01-17 09:40 51°18.65 2°44.103 12.5 351 7.3 101720 98
2005-01-17 09:41 51°18.67 2°44.102 9.9 338 7.4 101730 98
2005-01-17 09:42 51°18.694 2°44.112 10.7 321 7.4 101740 98
2005-01-17 09:43 51°18.713 2°44.112 11.6 310 7.4 101720 98
2005-01-17 09:44 51°18.699 2°44.055 14.8 10 7.4 101710 98
2005-01-17 09:45 51°18.648 2°44.087 13.4 43 7.4 101680 98
2005-01-17 09:46 51°18.594 2°44.141 13.5 53 7.3 101700 98
2005-01-17 09:47 51°18.593 2°44.155 11.4 49 7.3 101720 98
2005-01-17 09:48 51°18.604 2°44.165 12.1 75 7.3 101700 98
2005-01-17 09:49 51°18.621 2°44.172 11.1 92 7.3 101700 98
2005-01-17 09:50 51°18.639 2°44.178 11.2 113 7.3 101700 98
2005-01-17 09:51 51°18.634 2°44.232 13.5 60 7.3 101710 98
2005-01-17 09:52 51°18.515 2°44.234 17.7 2 7.3 101670 98
2005-01-17 09:53 51°18.364 2°44.038 20.4 353 7.3 101640 98
2005-01-17 09:54 51°18.193 2°43.822 20.2 358 7.3 101650 98
2005-01-17 09:55 51°18.014 2°43.625 18 356 7.3 101660 97
2005-01-17 09:56 51°17.827 2°43.441 20.6 5 7.4 101660 97
2005-01-17 09:57 51°17.632 2°43.28 18.8 2 7.3 101650 97
2005-01-17 09:58 51°17.44 2°43.122 20 2 7.4 101660 97
2005-01-17 09:59 51°17.272 2°42.995 14.2 8 7.4 101710 97
2005-01-17 10:00 51°17.217 2°42.986 9.6 62 7.4 101710 97
2005-01-17 10:01 51°17.224 2°42.994 12.3 86 7.3 101700 97
2005-01-17 10:02 51°17.233 2°43.008 12.5 95 7.3 101710 97
2005-01-17 10:03 51°17.24 2°43.022 10.2 84 7.2 101700 98
2005-01-17 10:04 51°17.247 2°43.034 10.4 80 7.2 101700 98
2005-01-17 10:05 51°17.256 2°43.048 11.2 80 7.2 101700 98
2005-01-17 10:06 51°17.268 2°43.054 15.1 87 7.2 101690 98
2005-01-17 10:07 51°17.281 2°43.06 12 91 7.2 101680 98
2005-01-17 10:08 51°17.294 2°43.065 11.4 94 7.2 101690 98
2005-01-17 10:09 51°17.307 2°43.072 12.8 88 7.2 101700 98
2005-01-17 10:10 51°17.321 2°43.077 10.4 91 7.2 101690 98
2005-01-17 10:11 51°17.328 2°43.095 8.2 78 7.2 101690 98
2005-01-17 10:12 51°17.285 2°43.123 14.9 28 7.2 101680 98
2005-01-17 10:13 51°17.164 2°43.13 18.9 28 7.2 101660 98
2005-01-17 10:14 51°16.96 2°43.084 18.9 6 7.2 101640 98
2005-01-17 10:15 51°16.751 2°42.993 18.7 8 7.3 101660 98
2005-01-17 10:16 51°16.539 2°42.902 19.2 11 7.3 101660 98
2005-01-17 10:17 51°16.328 2°42.815 18.5 10 7.2 101660 97
2005-01-17 10:18 51°16.124 2°42.728 17.9 11 7.3 101660 97
2005-01-17 10:19 51°16.003 2°42.682 13.7 26 7.2 101710 97
2005-01-17 10:20 51°15.968 2°42.682 12.5 16 7.2 101700 97
2005-01-17 10:21 51°15.973 2°42.686 9.6 38 7.2 101720 97
2005-01-17 10:22 51°15.987 2°42.689 10.2 70 7.2 101700 97
2005-01-17 10:23 51°16.001 2°42.689 10.7 96 7.2 101700 97
2005-01-17 10:24 51°16.016 2°42.692 12.5 104 7.1 101690 97
2005-01-17 10:25 51°16.026 2°42.698 12.9 105 7.2 101700 97
2005-01-17 10:26 51°16.038 2°42.707 10.4 100 7.2 101700 97
2005-01-17 10:27 51°16.046 2°42.717 10.1 100 7.2 101700 97
2005-01-17 10:28 51°16.053 2°42.727 10.2 83 7.2 101700 97
2005-01-17 10:29 51°16.059 2°42.736 12.1 89 7.2 101700 97
2005-01-17 10:30 51°16.063 2°42.748 8.7 79 7.2 101690 97
2005-01-17 10:31 51°15.969 2°42.812 15.7 30 7.2 101650 97
2005-01-17 10:32 51°15.763 2°42.799 17.4 12 7.2 101640 97
2005-01-17 10:33 51°15.568 2°42.644 18.1 2 7.2 101660 97
2005-01-17 10:34 51°15.398 2°42.405 17.2 353 7.3 101650 97
2005-01-17 10:35 51°15.235 2°42.153 17 354 7.3 101640 97
2005-01-17 10:36 51°15.071 2°41.895 16.8 353 7.3 101630 97
2005-01-17 10:37 51°14.947 2°41.596 17.2 340 7.3 101630 96
2005-01-17 10:38 51°14.914 2°41.231 16.3 329 7.3 101610 96
2005-01-17 10:39 51°14.893 2°40.862 16.3 330 7.4 101600 96
2005-01-17 10:40 51°14.87 2°40.494 17.9 328 7.4 101600 96
2005-01-17 10:41 51°14.844 2°40.125 19.3 325 7.4 101590 95
2005-01-17 10:42 51°14.818 2°39.763 18.9 324 7.5 101590 95
2005-01-17 10:43 51°14.788 2°39.39 17.7 326 7.5 101600 95
2005-01-17 10:44 51°14.747 2°39.032 17.8 333 7.5 101600 95
2005-01-17 10:45 51°14.694 2°38.664 18.2 328 7.5 101600 95
2005-01-17 10:46 51°14.643 2°38.306 17.5 335 7.5 101600 95
2005-01-17 10:47 51°14.589 2°37.944 17.7 331 7.5 101590 96
2005-01-17 10:48 51°14.537 2°37.578 20.1 330 7.6 101580 95
2005-01-17 10:49 51°14.485 2°37.211 15.9 330 7.6 101580 95
2005-01-17 10:50 51°14.479 2°36.839 13.6 305 7.6 101580 95
2005-01-17 10:51 51°14.663 2°36.636 13.5 268 7.6 101610 95
2005-01-17 10:52 51°14.88 2°36.471 9.2 265 7.6 101620 95
2005-01-17 10:53 51°15.098 2°36.338 4.9 251 7.6 101630 95
2005-01-17 10:54 51°15.331 2°36.351 4 230 7.6 101620 95
2005-01-17 10:55 51°15.561 2°36.402 3.6 211 7.6 101620 95
2005-01-17 10:56 51°15.785 2°36.461 3.8 207 7.7 101620 95
2005-01-17 10:57 51°16.009 2°36.535 3.2 187 7.7 101620 95
2005-01-17 10:58 51°16.233 2°36.618 4.9 217 7.9 101610 95
2005-01-17 10:59 51°16.434 2°36.699 7.7 212 8.1 101610 96
2005-01-17 11:00 51°16.56 2°36.736 8.1 200 8 101650 93
2005-01-17 11:01 51°16.614 2°36.756 11.7 145 7.9 101650 94
2005-01-17 11:02 51°16.624 2°36.759 13.3 119 7.8 101600 93
2005-01-17 11:03 51°16.629 2°36.764 13.1 109 7.7 101600 93
2005-01-17 11:04 51°16.633 2°36.768 12.8 95 7.7 101600 94
2005-01-17 11:05 51°16.637 2°36.772 12.9 92 7.6 101590 94
2005-01-17 11:06 51°16.639 2°36.777 13.1 82 7.6 101590 95
2005-01-17 11:07 51°16.643 2°36.78 13.2 86 7.6 101590 95
2005-01-17 11:08 51°16.649 2°36.782 12.9 99 7.6 101580 95
2005-01-17 11:09 51°16.655 2°36.784 10.9 94 7.6 101590 95
2005-01-17 11:10 51°16.661 2°36.788 12.3 100 7.6 101590 95
2005-01-17 11:11 51°16.664 2°36.793 10.6 86 7.6 101590 95
2005-01-17 11:12 51°16.665 2°36.797 10.7 81 7.6 101600 96
2005-01-17 11:13 51°16.666 2°36.799 11.7 86 7.6 101600 96
2005-01-17 11:14 51°16.668 2°36.8 10.9 80 7.6 101600 96
2005-01-17 11:15 51°16.672 2°36.802 11.2 96 7.6 101590 96
2005-01-17 11:16 51°16.675 2°36.806 11.8 102 7.6 101600 96
2005-01-17 11:17 51°16.677 2°36.809 13.5 93 7.6 101600 96
2005-01-17 11:18 51°16.679 2°36.812 11.1 93 7.6 101580 97
2005-01-17 11:19 51°16.681 2°36.814 13.1 88 7.6 101590 97
2005-01-17 11:20 51°16.683 2°36.814 13.6 91 7.6 101590 97
2005-01-17 11:21 51°16.687 2°36.815 14.5 91 7.6 101580 96
2005-01-17 11:22 51°16.689 2°36.818 12.2 92 7.6 101590 96
2005-01-17 11:23 51°16.689 2°36.821 12.9 84 7.6 101570 96
2005-01-17 11:24 51°16.69 2°36.824 14.3 89 7.6 101580 96
2005-01-17 11:25 51°16.691 2°36.827 12.1 91 7.6 101560 96
2005-01-17 11:26 51°16.693 2°36.827 13.2 94 7.6 101550 96
2005-01-17 11:27 51°16.687 2°36.838 10.7 80 7.6 101560 96
2005-01-17 11:28 51°16.632 2°36.906 15.5 56 7.7 101540 96
2005-01-17 11:29 51°16.49 2°36.976 17.8 32 7.7 101520 95
2005-01-17 11:30 51°16.274 2°36.929 19.2 8 7.7 101500 95
2005-01-17 11:31 51°16.06 2°36.801 18.9 7 7.7 101520 95
2005-01-17 11:32 51°15.846 2°36.669 18.2 5 7.8 101520 95
2005-01-17 11:33 51°15.637 2°36.535 18.5 12 7.8 101520 95
2005-01-17 11:34 51°15.428 2°36.393 18.6 9 7.8 101520 95
2005-01-17 11:35 51°15.225 2°36.28 17.4 10 7.8 101520 95
2005-01-17 11:36 51°15.002 2°36.165 15.9 11 7.8 101520 94
2005-01-17 11:37 51°14.784 2°36.051 16.5 6 7.8 101510 94
2005-01-17 11:38 51°14.582 2°35.952 17.5 21 7.8 101520 94
2005-01-17 11:39 51°14.358 2°36.033 15.5 33 7.8 101490 94
2005-01-17 11:40 51°14.195 2°36.241 14.7 62 7.8 101490 94
2005-01-17 11:41 51°14.126 2°36.557 10.7 78 7.8 101490 94
2005-01-17 11:42 51°14.136 2°36.885 10.6 85 7.7 101500 94
2005-01-17 11:43 51°14.151 2°37.227 10.5 102 7.7 101510 95
2005-01-17 11:44 51°14.175 2°37.561 10.2 97 7.7 101500 95
2005-01-17 11:45 51°14.201 2°37.906 9.3 84 7.7 101500 95
2005-01-17 11:46 51°14.226 2°38.243 9.5 91 7.7 101490 95
2005-01-17 11:47 51°14.25 2°38.591 9.7 96 7.7 101500 95
2005-01-17 11:48 51°14.272 2°38.929 9.3 95 7.7 101500 95
2005-01-17 11:49 51°14.298 2°39.268 9.3 82 7.7 101490 95
2005-01-17 11:50 51°14.322 2°39.605 9.5 88 7.7 101490 95
2005-01-17 11:51 51°14.349 2°39.938 10.4 92 7.7 101480 95
2005-01-17 11:52 51°14.369 2°40.276 10 91 7.7 101480 95
2005-01-17 11:53 51°14.394 2°40.619 9.2 88 7.7 101480 95
2005-01-17 11:54 51°14.421 2°40.956 10.4 98 7.7 101480 95
2005-01-17 11:55 51°14.44 2°41.293 11.3 87 7.7 101470 95
2005-01-17 11:56 51°14.458 2°41.636 10.2 95 7.7 101470 95
2005-01-17 11:57 51°14.476 2°41.973 10.3 95 7.7 101470 95
2005-01-17 11:58 51°14.5 2°42.313 10.7 87 7.7 101460 95
2005-01-17 11:59 51°14.515 2°42.653 10.3 85 7.7 101470 95
2005-01-17 12:00 51°14.535 2°43.016 9.2 89 7.7 101470 95
2005-01-17 12:01 51°14.558 2°43.386 9.5 86 7.7 101460 95
2005-01-17 12:02 51°14.574 2°43.724 10.7 90 7.7 101450 95
2005-01-17 12:03 51°14.591 2°44.061 9.8 90 7.7 101460 95
2005-01-17 12:04 51°14.608 2°44.408 10 81 7.7 101450 95
2005-01-17 12:05 51°14.629 2°44.752 9.4 93 7.7 101450 95
2005-01-17 12:06 51°14.669 2°45.089 11 93 7.7 101460 95
2005-01-17 12:08 51°14.715 2°45.458 10.3 101 7.7 101450 95
2005-01-17 12:09 51°14.75 2°45.794 9.3 97 7.7 101450 95
2005-01-17 12:10 51°14.793 2°46.122 9.7 94 7.7 101450 95
2005-01-17 12:10 51°14.827 2°46.438 9.4 98 7.7 101440 95
2005-01-17 12:12 51°14.854 2°46.784 11.4 86 7.7 101490 95
2005-01-17 12:13 51°14.881 2°47.132 10.1 88 7.7 101450 95
2005-01-17 12:14 51°14.911 2°47.481 9.9 97 7.8 101440 95
2005-01-17 12:15 51°14.945 2°47.836 10.2 95 7.8 101450 95
2005-01-17 12:16 51°14.98 2°48.177 10.4 100 7.8 101430 95
2005-01-17 12:17 51°15.017 2°48.521 9.8 99 7.8 101430 94
2005-01-17 12:18 51°15.052 2°48.854 7.9 90 7.8 101430 94
2005-01-17 12:19 51°15.086 2°49.195 9.8 93 7.8 101430 94
2005-01-17 12:20 51°15.118 2°49.537 10.6 91 7.7 101430 94
2005-01-17 12:21 51°15.147 2°49.877 9.3 93 7.7 101430 94
2005-01-17 12:22 51°15.179 2°50.216 10 96 7.8 101430 94
2005-01-17 12:23 51°15.215 2°50.555 10.1 103 7.7 101430 95
2005-01-17 12:24 51°15.249 2°50.896 10.1 89 7.7 101410 95
2005-01-17 12:25 51°15.277 2°51.238 10.4 102 7.7 101410 95
2005-01-17 12:26 51°15.28 2°51.582 10.2 80 7.7 101410 95
2005-01-17 12:27 51°15.218 2°51.914 12.4 70 7.7 101400 95
2005-01-17 12:28 51°15.142 2°52.151 12.2 68 7.8 101450 95
2005-01-17 12:29 51°15.084 2°52.287 10.5 78 7.8 101450 95
2005-01-17 12:30 51°15.036 2°52.394 11 84 7.8 101450 95
2005-01-17 12:31 51°14.996 2°52.494 12.6 85 7.8 101460 95
2005-01-17 12:32 51°14.958 2°52.593 12.1 84 7.8 101460 95
2005-01-17 12:33 51°14.918 2°52.69 9.3 74 7.8 101450 95
2005-01-17 12:34 51°14.878 2°52.784 10.5 82 7.8 101450 95
2005-01-17 12:35 51°14.845 2°52.884 11.3 86 7.8 101440 95
2005-01-17 12:36 51°14.808 2°52.985 10.8 82 7.8 101440 95
2005-01-17 12:37 51°14.769 2°53.083 11.4 84 7.8 101440 95
2005-01-17 12:38 51°14.731 2°53.182 11 81 7.9 101430 95
2005-01-17 12:39 51°14.695 2°53.283 12.9 90 7.9 101440 95
2005-01-17 12:40 51°14.668 2°53.389 13 97 7.9 101430 95
2005-01-17 12:41 51°14.644 2°53.501 11 95 7.9 101430 94
2005-01-17 12:42 51°14.618 2°53.592 15 90 8 101420 94
2005-01-17 12:43 51°14.593 2°53.67 11.2 97 8 101420 94
2005-01-17 12:44 51°14.566 2°53.776 11.5 87 8 101430 94
2005-01-17 12:45 51°14.534 2°53.926 11.7 89 8 101420 94
2005-01-17 12:46 51°14.498 2°54.143 11.6 90 8 101430 94
2005-01-17 12:47 51°14.463 2°54.432 13.1 89 8 101410 94
2005-01-17 12:48 51°14.426 2°54.741 7.9 76 8.1 101430 93